Stations météo

réclame
Mon MeteoGroup
Huelva, Espagne (8383): Température de l'air & dewpoint: 11.07.2018 13:00:00 - 17.07.2018 13:00:00 (CEST)Huelva, Espagne (8383): Vitesse du vent: 11.07.2018 13:00:00 - 17.07.2018 13:00:00 (CEST)Huelva, Espagne (8383): Direction du vent: 11.07.2018 13:00:00 - 17.07.2018 13:00:00 (CEST)Huelva, Espagne (8383): reduced air pressure: 11.07.2018 13:00:00 - 17.07.2018 13:00:00 (CEST)Huelva, Espagne (8383): visibility: 11.07.2018 13:00:00 - 17.07.2018 13:00:00 (CEST)Huelva, Espagne (8383): Quantités de précipitations: 11.07.2018 13:00:00 - 17.07.2018 13:00:00 (CEST)
Date & Time tt [°C] td [°C] ff [km/h] ff [knt] dd ppp [hPa] vv [km] rr [mm]
17.07.2018 13:00:00 32,4 14,5 5 3 SSW 1014,9 20 0,0
17.07.2018 12:00:00 30,1 13,4 8 4 E 1015,2 20 0,0
17.07.2018 11:00:00 27,0 15,4 8 4 NNE 1015,4 14 -
17.07.2018 10:00:00 23,8 15,6 9 5 N 1015,7 19 0,0
17.07.2018 09:00:00 21,3 15,4 8 4 N 1015,5 20 0,0
17.07.2018 08:00:00 19,7 14,9 9 5 N 1015,5 10 -
17.07.2018 07:00:00 19,9 14,9 9 5 N 1015,2 20 0,0
17.07.2018 06:00:00 20,3 14,6 9 5 N 1015,2 20 0,0
17.07.2018 05:00:00 21,3 14,7 11 6 N 1015,4 20 -
17.07.2018 04:00:00 22,3 14,9 11 6 N 1015,6 20 0,0
17.07.2018 03:00:00 22,7 15,3 8 4 N 1016,0 20 0,0
17.07.2018 02:00:00 20,6 15,4 5 3 NNE 1016,5 20 -
17.07.2018 01:00:00 20,4 15,8 5 3 NNE 1016,8 18 0,0
17.07.2018 00:00:00 21,0 16,2 4 2 NNE 1017,0 19 0,0
16.07.2018 23:00:00 22,3 16,1 5 3 W 1016,7 20 -
16.07.2018 22:00:00 23,0 16,5 11 6 SW 1016,7 20 0,0
16.07.2018 21:00:00 23,8 15,0 16 9 SW 1016,7 20 0,0
16.07.2018 20:00:00 24,1 16,1 18 10 SW 1017,0 20 -
16.07.2018 19:00:00 26,4 15,7 18 10 SSW 1017,2 20 0,0
16.07.2018 18:00:00 27,4 15,4 18 10 SW 1017,7 20 0,0
16.07.2018 17:00:00 27,8 16,1 18 10 SW 1018,3 20 -
16.07.2018 16:00:00 27,4 15,7 18 10 WSW 1018,8 20 0,0
16.07.2018 15:00:00 27,6 15,3 16 9 SW 1019,8 20 0,0
16.07.2018 14:00:00 27,5 15,2 13 7 WSW 1020,4 18 -
16.07.2018 13:00:00 26,9 14,3 9 5 W 1020,9 20 0,0
16.07.2018 12:00:00 25,2 14,6 5 3 WNW 1021,0 20 0,0
16.07.2018 11:00:00 23,3 15,1 8 4 N 1021,0 20 -
16.07.2018 10:00:00 21,7 16,0 8 4 N 1021,0 20 0,0
16.07.2018 09:00:00 19,1 16,0 11 6 WNW 1021,1 19 0,0
16.07.2018 08:00:00 17,0 15,5 11 6 NW 1021,0 16 -
16.07.2018 07:00:00 16,6 15,3 8 4 WNW 1020,9 14 0,0
16.07.2018 06:00:00 16,7 15,2 9 5 WNW 1020,6 15 0,0
16.07.2018 05:00:00 17,7 15,5 8 4 WNW 1020,7 20 -
16.07.2018 04:00:00 18,1 15,4 9 5 NW 1020,9 20 0,0
16.07.2018 03:00:00 18,2 15,1 8 4 WNW 1021,2 20 0,0
16.07.2018 02:00:00 18,9 15,0 9 5 WNW 1021,6 20 -
16.07.2018 01:00:00 20,1 15,1 15 8 WNW 1021,4 20 0,0
16.07.2018 00:00:00 21,0 14,4 15 8 WNW 1021,1 20 0,0
15.07.2018 23:00:00 21,4 15,7 9 5 WNW 1020,5 20 -
15.07.2018 22:00:00 21,8 17,2 13 7 WSW 1019,4 20 0,0
15.07.2018 21:00:00 23,1 16,9 18 10 WSW 1018,9 20 0,0
15.07.2018 20:00:00 23,2 17,4 21 11 SW 1018,7 20 -
15.07.2018 19:00:00 23,7 16,7 24 13 SW 1019,2 20 0,0
15.07.2018 18:00:00 24,0 15,8 26 14 SW 1019,7 20 0,0
15.07.2018 17:00:00 23,8 16,3 28 15 WSW 1019,9 20 -
15.07.2018 16:00:00 23,5 16,0 28 15 WSW 1020,2 20 0,0
15.07.2018 15:00:00 24,3 15,5 22 12 SW 1020,4 20 0,0
15.07.2018 14:00:00 24,4 14,2 21 11 SW 1020,6 20 -
15.07.2018 13:00:00 23,9 14,6 18 10 SW 1020,8 20 0,0
15.07.2018 12:00:00 23,7 14,7 11 6 SW 1020,8 20 0,0
15.07.2018 11:00:00 22,0 14,6 8 4 W 1020,9 20 -
15.07.2018 10:00:00 20,7 15,3 8 4 W 1020,9 20 0,0
15.07.2018 09:00:00 19,1 15,6 11 6 W 1020,5 20 0,0
15.07.2018 08:00:00 16,9 15,1 8 4 WNW 1020,3 16 -
15.07.2018 07:00:00 16,4 14,8 9 5 W 1020,0 20 0,0
15.07.2018 06:00:00 16,3 14,5 8 4 W 1019,6 20 0,0
15.07.2018 05:00:00 16,7 14,0 8 4 WNW 1019,6 20 -
15.07.2018 04:00:00 17,4 13,7 11 6 WNW 1019,7 20 0,0
15.07.2018 03:00:00 17,9 14,0 8 4 WNW 1020,0 20 0,0
15.07.2018 02:00:00 18,6 14,3 8 4 WNW 1020,2 20 -
15.07.2018 01:00:00 19,7 14,3 15 8 WNW 1020,3 20 0,0
15.07.2018 00:00:00 20,4 15,6 15 8 W 1019,7 20 0,0
14.07.2018 23:00:00 20,2 16,2 18 10 SW 1019,2 20 -
14.07.2018 22:00:00 20,4 15,8 18 10 WSW 1018,5 20 0,0
14.07.2018 21:00:00 21,6 14,7 16 9 WSW 1018,1 20 0,0
14.07.2018 20:00:00 22,1 15,4 24 13 WSW 1017,9 20 -
14.07.2018 19:00:00 23,2 14,7 24 13 SW 1018,1 20 0,0
14.07.2018 18:00:00 23,4 14,7 22 12 WSW 1018,6 20 0,0
14.07.2018 17:00:00 24,0 14,7 22 12 SW 1019,0 20 -
14.07.2018 16:00:00 24,7 14,2 21 11 WSW 1019,3 20 0,0
14.07.2018 15:00:00 24,7 13,6 18 10 SW 1019,6 20 0,0
14.07.2018 14:00:00 24,5 14,9 16 9 WSW 1020,0 20 -
14.07.2018 13:00:00 24,2 15,7 16 9 SW 1020,0 20 0,0
14.07.2018 12:00:00 23,2 16,0 9 5 SW 1019,6 19 0,0
14.07.2018 11:00:00 21,7 16,2 4 2 SW 1019,4 19 -
14.07.2018 10:00:00 18,6 16,2 5 3 N 1019,1 12 0,0
14.07.2018 09:00:00 16,7 16,2 5 3 NW 1018,7 4,1 0,0
14.07.2018 08:00:00 15,6 14,3 8 4 NNE 1018,3 8 -
14.07.2018 07:00:00 16,0 15,0 2 1 ENE 1017,9 8 0,0
14.07.2018 06:00:00 16,4 14,9 5 3 NE 1017,8 9 0,0
14.07.2018 05:00:00 17,1 14,4 2 1 NE 1017,7 15 -
14.07.2018 04:00:00 17,7 15,0 5 3 NW 1017,8 13 0,0
14.07.2018 03:00:00 18,3 15,5 5 3 W 1018,0 15 0,0
14.07.2018 02:00:00 19,0 17,1 5 3 SSW 1018,1 10 -
14.07.2018 01:00:00 19,1 17,2 8 4 S 1018,1 12 0,0
14.07.2018 00:00:00 19,5 17,3 8 4 S 1017,8 12 0,0
13.07.2018 23:00:00 20,2 15,8 5 3 SSW 1017,3 17 -
13.07.2018 22:00:00 20,9 16,3 13 7 WSW 1016,5 16 0,0
13.07.2018 21:00:00 22,6 16,6 15 8 WSW 1016,3 19 0,0
13.07.2018 20:00:00 24,0 15,8 16 9 SW 1016,1 19 -
13.07.2018 19:00:00 25,8 16,1 13 7 SSW 1016,5 19 0,0
13.07.2018 18:00:00 26,0 16,0 16 9 SSW 1016,8 19 0,0
13.07.2018 17:00:00 26,2 15,6 18 10 SSW 1017,1 19 -
13.07.2018 16:00:00 26,8 16,4 15 8 SW 1017,2 19 0,0
13.07.2018 15:00:00 25,6 16,4 15 8 WSW 1017,4 17 0,0
13.07.2018 14:00:00 25,4 16,8 15 8 SW 1017,6 9 -
13.07.2018 13:00:00 24,3 16,8 9 5 W 1017,7 16 0,0
13.07.2018 12:00:00 22,6 16,6 9 5 W 1017,5 14 0,0
13.07.2018 11:00:00 22,2 16,9 8 4 WNW 1017,0 8 -
13.07.2018 10:00:00 21,5 17,1 4 2 NE 1016,6 12 0,0
13.07.2018 09:00:00 21,0 17,2 4 2 N 1016,5 13 0,0
13.07.2018 08:00:00 20,4 17,4 4 2 NW 1016,3 8 -
13.07.2018 07:00:00 20,6 17,4 2 1 NNE 1015,9 12 0,0
13.07.2018 06:00:00 20,6 17,4 2 1 NW 1015,8 12 0,0
13.07.2018 05:00:00 20,6 17,2 4 2 NNE 1016,0 13 -
13.07.2018 04:00:00 20,5 17,3 4 2 N 1016,0 12 0,0
13.07.2018 03:00:00 20,4 17,4 5 3 N 1016,0 11 0,0
13.07.2018 02:00:00 20,4 17,4 5 3 WNW 1016,3 11 -
13.07.2018 01:00:00 20,4 17,4 2 1 ESE 1016,3 8 0,0
13.07.2018 00:00:00 20,2 17,2 8 4 SW 1016,2 13 0,0
12.07.2018 23:00:00 20,4 17,2 8 4 SSW 1015,6 14 -
12.07.2018 22:00:00 20,7 16,7 11 6 SSW 1015,1 16 0,0
12.07.2018 21:00:00 21,9 16,8 15 8 S 1014,7 16 0,0
12.07.2018 20:00:00 23,2 17,0 15 8 S 1014,6 18 -
12.07.2018 19:00:00 24,2 16,7 16 9 S 1014,9 19 0,0
12.07.2018 18:00:00 24,9 16,3 16 9 SSW 1015,1 19 0,0
12.07.2018 17:00:00 25,1 17,3 16 9 SSW 1015,2 13 -
12.07.2018 16:00:00 25,4 17,8 18 10 S 1015,6 15 0,0
12.07.2018 15:00:00 25,9 18,3 21 11 S 1015,8 15 0,0
12.07.2018 14:00:00 23,9 18,1 15 8 S 1016,3 9 -
12.07.2018 13:00:00 23,7 17,9 8 4 S 1016,6 6 0,0
12.07.2018 12:00:00 22,3 17,7 4 2 E 1016,7 9 0,0
12.07.2018 11:00:00 21,2 17,8 5 3 SSE 1016,5 6 -
12.07.2018 10:00:00 19,8 17,4 2 1 ENE 1016,2 7 0,0
12.07.2018 09:00:00 18,3 17,0 5 3 N 1016,0 6 0,0
12.07.2018 08:00:00 17,0 16,2 4 2 NE 1015,6 4,0 -
12.07.2018 07:00:00 18,2 16,7 5 3 N 1015,1 7 0,0
12.07.2018 06:00:00 18,4 16,7 8 4 N 1014,8 8 0,0
12.07.2018 05:00:00 18,6 16,7 5 3 WNW 1015,1 10 -
12.07.2018 04:00:00 19,0 16,8 5 3 NW 1015,1 10 0,0
12.07.2018 03:00:00 19,1 16,5 8 4 WNW 1015,1 11 0,0
12.07.2018 02:00:00 20,0 16,8 4 2 WNW 1015,0 14 -
12.07.2018 01:00:00 19,9 18,0 2 1 W 1015,1 12 0,0
12.07.2018 00:00:00 20,1 17,9 5 3 S 1015,2 3,9 0,0
11.07.2018 23:00:00 21,0 17,4 8 4 SW 1014,7 17 -
11.07.2018 22:00:00 21,8 17,0 9 5 SW 1014,3 19 0,0
11.07.2018 21:00:00 23,0 16,8 13 7 WSW 1014,1 20 0,0
11.07.2018 20:00:00 23,3 17,1 21 11 WSW 1014,1 20 -
11.07.2018 19:00:00 23,6 17,3 24 13 SW 1014,5 20 0,0
11.07.2018 18:00:00 23,7 17,4 24 13 SW 1014,7 20 0,0
11.07.2018 17:00:00 24,7 17,4 24 13 SW 1015,3 20 -
11.07.2018 16:00:00 25,6 17,5 22 12 SSW 1015,5 20 0,0
11.07.2018 15:00:00 26,2 17,6 22 12 SW 1015,9 20 0,0
11.07.2018 14:00:00 26,9 17,7 18 10 SW 1016,2 10 -
11.07.2018 13:00:00 27,5 16,8 9 5 W 1016,2 20 0,0

tt = Température de l'air
td = dewpoint
ff = Vitesse du vent
dd = Direction du vent
ppp = reduced air pressure
vv = visibility
rr = Quantités de précipitations

stations d'obs. à proximité